星链-36063(STARLINK-36063)

导读 | 豆包AI

STARLINK-36063是美国太空探索技术公司星链星座的一员,于2025年11月22日发射升空,隶属于星链低轨互联网星座网络,承担全球范围互联网接入服务,尤其为偏远、基础设施薄弱区域提供宽带通信服务,作为星链扩容任务发射,进一步完善了星链星座的全球覆盖密度与通信容量。

基本信息
目录编号:
66606
目录名称:
STARLINK-36063
国际标识:
2025-270U
轨道中心:
EARTH
卫星名称:
星链-36063
卫星全名:
星链-36063(STARLINK-36063)
卫星状态:
在轨 (已飞行133 天)
发射日期:
2025-11-22 UTC
国别 :
美国 (US)
星等 :
--
轨道信息
数据来源 国际轨道数据
星历时间: 2026-04-04T04:02:50+0800
7小时前
查看轨道信息
半长轴: 6861.115km
偏心率: 0.0002254
轨道倾角: 43.002°
近地点辐角 257.910°
升交点赤经 273.986°
平近点角 102.150°
近地点: 481.431km
远地点: 484.525km
周期: 94.265分钟
每日圈数: 15.276039
详细信息
固有亮度:
5
最大亮度:
2.5
卫星平台:
Starlink V1.0
覆盖范围:
全球
运营商:
太空探索技术公司
运营商所在国:
美国
制造商(研发单位):
太空探索技术公司
制造商所在国:
美国
使用方式:
暂无
卫星简介
Starlink 计划是 SpaceX 推出的全球卫星互联网项目,通过发射低轨道卫星,为全球尤其是偏远地区提供高速、低延迟的互联网服务。自 2019 年起,Starlink 已部署数千颗卫星,旨在缩小全球数字鸿沟,推动互联网普及。该项目还为军事、航空等行业提供通信支持,带来广泛经济效益。
2D轨道图
3D轨道图
轨道高度分析图
轨道倾角分析图
轨道综合分析图
查看轨道综合分析图